Regional Weather Roundup
Issued by NWS

Home | Current Version | Previous Version | Text Only | Print | Product List | Glossary On
Versions: 1 2 3 4 5 6 7 8 9 10 11 12 13 14 15 16 17 18 19 20 21 22 23 24 25 26 27 28 29 30 31 32 33
000
ASUS44 KBMX 290510
RWRAL

ALABAMA REGIONAL WEATHER ROUNDUP
NATIONAL WEATHER SERVICE BIRMINGHAM AL
1200 AM CDT WED MAR 29 2017

NOTE: "FAIR" INDICATES FEW OR NO CLOUDS BELOW 12,000 FEET
WITH NO SIGNIFICANT WEATHER AND/OR OBSTRUCTIONS TO VISIBILITY.

THE REMARK "TC" DENOTES TEMPERATURE IN DEGREES CELSIUS.

ALZ001>011-014-016>018-020-290600-
NORTH ALABAMA

CITY           SKY/WX    TMP DP  RH WIND       PRES   REMARKS
MUSCLE SHOALS  CLEAR     63  55  75 E8        30.00F
HUNTSVILLE     CLEAR     61  55  81 E6        30.00F
DECATUR        CLEAR     62  54  74 NE7       30.01S
HALEYVILLE     FAIR      59  56  89 CALM      30.01F
GADSDEN        CLEAR     59  58  96 N3        30.02S
$$

ALZ012-013-022-023-030>036-040>044-290600-
WEST CENTRAL ALABAMA

CITY           SKY/WX    TMP DP  RH WIND       PRES   REMARKS
TUSCALOOSA     CLEAR     66  64  93 CALM      29.96F FOG
$$

ALZ015-024>027-033>036-040>044-290600-
CENTRAL ALABAMA

CITY           SKY/WX    TMP DP  RH WIND       PRES   REMARKS
BIRMINGHAM     CLEAR     64  60  87 NE5       30.02S
MONTGOMERY     PTCLDY    68  61  78 S6        30.00R
SHELBY CO ARPT CLEAR     65  65 100 CALM      29.99S FOG
MAXWELL AFB    PTCLDY    67  65  94 CALM      29.99R
GREENVILLE     FAIR      69  62  78 S6        30.00S
$$

ALZ019-021-028-029-037-038-045>048-290600-
EAST CENTRAL ALABAMA

CITY           SKY/WX    TMP DP  RH WIND       PRES   REMARKS
ANNISTON       CLEAR     64  62  93 CALM      30.01S
ALEXANDER CITY PTCLDY    60  59  97 CALM      30.01S FOG
AUBURN         PTCLDY    66  61  84 CALM      30.02S
$$

ALZ051>064-290600-
SOUTHWEST ALABAMA

CITY           SKY/WX    TMP DP  RH WIND       PRES   REMARKS
MOBILE         CLEAR     68  66  93 S7        29.99F
BROOKLEY FIELD PTCLDY    73  69  87 S7        30.00F
EVERGREEN      PTCLDY    67  64  90 S5        30.01F
$$

ALZ049-050-065>069-290600-
SOUTHEAST ALABAMA

CITY           SKY/WX    TMP DP  RH WIND       PRES   REMARKS
DOTHAN         PTCLDY    67  67 100 SW7       30.05S
OZARK          MOCLDY    68  66  94 SW6       30.02S
TROY           CLEAR     67  63  87 SW5       30.03R
EUFAULA        FAIR      71  62  73 SW6       30.00S
$$




USA.gov is the U.S. government's official web portal to all federal, state and local government web resources and services.